Theta_e
322 322 321 321 320 320 320 320 321 320 318 317 317 319 319 318 317 302 298 307 312 320 319 308 305 304 305 302 302 300 289 285 286 288 287 293 292 295 297 298 303 306 305 316 318
322 322 321 320 320 319 319 321 321 320 319 318 317 319 318 317 303 298 315 320 321 321 306 300 299 301 297 298 298 294 287 287 288 287 288 291 292 292 293 295 301 304 311 317 317
320 321 320 320 319 319 319 320 319 320 319 319 319 319 316 311 297 296 319 320 321 319 303 301 301 300 295 295 294 293 289 291 290 292 291 291 291 292 290 290 291 295 305 312 312
319 318 320 318 317 317 318 318 318 319 318 318 319 318 314 303 287 299 319 319 321 311 303 300 298 294 291 291 295 290 293 293 294 294 292 290 292 290 289 290 299 299 309 310 310
317 317 318 317 318 318 318 317 318 319 318 318 317 316 304 293 293 302 316 311 305 303 300 298 295 294 290 292 293 290 291 294 293 293 291 293 290 289 288 290 301 303 307 308 309
317 317 317 317 316 316 316 317 318 317 316 316 317 317 298 288 301 304 304 304 303 301 298 298 295 296 293 292 290 292 292 292 293 293 293 291 289 290 288 290 297 303 306 307 309
316 316 316 315 315 314 315 316 317 315 315 315 316 304 297 293 301 303 304 302 304 302 298 299 299 296 295 290 294 293 289 290 292 292 291 291 289 287 289 292 291 301 306 307 309
315 315 314 315 315 315 314 316 317 317 314 316 317 300 292 302 300 303 303 303 305 304 301 301 301 297 293 293 292 289 288 284 290 291 292 291 285 289 290 290 291 297 302 304 302
314 314 314 315 314 315 315 316 316 318 317 316 301 297 291 307 300 302 302 300 302 304 303 303 300 295 294 289 286 287 279 284 288 291 289 289 285 290 290 291 290 290 297 300 297
314 314 314 314 315 315 316 315 314 310 306 305 302 294 296 295 299 301 301 302 300 301 300 299 294 287 287 285 276 280 281 286 284 287 287 285 284 286 287 288 286 288 289 292 293
312 313 314 314 315 316 309 304 298 294 297 292 293 294 296 299 302 297 300 300 302 298 291 294 285 280 284 286 287 286 285 283 286 287 283 282 281 283 285 285 284 284 287 289 291
311 311 313 314 315 313 303 296 295 297 289 297 297 296 298 297 293 295 301 295 292 286 293 286 281 287 289 287 286 284 283 279 283 286 283 282 279 282 285 283 284 284 284 287 289
312 310 312 313 313 304 298 298 303 300 289 292 295 293 294 297 291 291 296 295 288 285 284 283 285 290 288 283 285 281 279 277 279 282 283 279 277 281 283 285 285 285 285 286 287
312 309 311 313 302 300 297 303 304 300 277 283 290 293 296 294 289 295 295 293 289 281 285 283 287 287 284 281 282 281 282 281 281 274 271 279 272 277 279 281 282 282 281 282 283
311 309 311 312 300 297 299 303 301 296 270 285 289 298 295 289 289 291 295 292 285 283 283 281 282 281 280 281 283 281 282 280 279 274 273 276 270 277 279 278 279 280 281 281 282
310 308 309 302 300 299 302 301 297 279 270 279 289 288 286 288 288 291 290 292 290 286 284 281 286 282 281 284 284 285 280 279 277 273 268 267 268 272 276 278 278 280 280 281 282
309 308 302 301 293 299 301 297 280 273 281 278 281 286 282 282 284 286 284 281 278 275 276 281 280 283 284 280 283 280 275 268 268 269 270 262 269 274 278 278 279 278 279 280 280
309 307 302 298 298 297 297 285 273 272 276 285 284 284 280 281 282 284 282 278 281 280 275 271 273 278 282 279 277 278 275 270 262 267 270 263 267 274 279 280 280 280 280 280 280
308 300 297 295 298 297 289 276 274 281 285 283 284 277 276 282 279 280 279 278 279 279 275 272 276 280 281 281 279 278 271 276 265 259 264 270 275 278 278 276 278 278 278 278 279
295 297 296 296 296 294 283 277 276 286 287 285 279 279 272 275 279 278 278 281 281 281 281 277 271 276 281 281 280 279 279 271 269 263 262 268 266 274 272 269 272 275 275 276 278
296 290 299 296 295 287 277 271 278 287 288 283 280 275 279 276 278 277 277 280 282 281 281 279 272 275 277 271 273 273 272 272 272 273 265 263 270 270 269 268 267 268 275 271 273
295 285 297 297 285 281 273 277 287 285 288 285 283 281 279 279 278 273 277 280 284 281 278 280 278 268 273 277 278 277 277 276 269 265 269 269 271 272 269 267 266 268 274 275 275
288 289 298 296 279 273 278 280 284 283 283 283 281 282 282 274 274 278 278 283 284 281 280 280 270 264 272 274 277 273 277 277 271 274 267 265 271 268 267 266 267 268 271 272 274
292 284 287 287 285 281 277 279 280 285 284 284 282 282 279 274 278 273 279 282 283 282 288 284 278 269 269 271 270 271 275 276 272 262 268 271 273 269 269 265 266 268 268 269 272
290 283 283 277 281 281 282 280 280 278 283 284 280 281 279 272 275 270 278 280 282 286 282 280 267 273 273 271 270 274 273 271 270 271 268 274 268 268 265 266 267 267 269 271 274
289 286 284 278 283 281 283 281 280 280 282 280 278 282 281 274 279 278 279 279 278 280 280 280 265 267 266 274 275 271 274 273 271 273 268 273 272 264 264 262 265 269 268 268 270
288 287 290 285 282 280 281 281 281 281 282 283 282 281 280 281 282 282 281 281 279 279 279 273 266 262 263 268 267 266 268 270 269 266 269 266 268 262 264 266 266 268 268 269 269
Wind_Speed
12 13 14 14 15 15 15 15 14 14 12 12 12 12 11 11 5 10 12 6 8 17 17 9 3 6 2 2 4 3 6 4 5 5 2 6 5 9 3 3 5 5 4 7 10
13 13 14 15 16 17 16 15 15 14 12 12 11 10 11 9 2 14 7 12 10 12 7 8 7 9 4 4 5 6 5 3 2 1 3 5 5 6 6 4 5 5 7 7 6
13 14 15 15 16 17 16 15 15 13 12 10 10 9 9 6 5 6 15 17 15 8 5 3 5 0 6 6 6 5 4 4 5 4 4 5 6 6 3 5 2 3 6 5 4
13 15 15 16 16 16 17 16 15 13 11 10 10 9 8 1 5 6 15 16 16 9 4 3 3 4 5 7 5 7 8 5 2 4 3 3 7 4 3 3 5 6 7 6 6
14 15 14 14 15 16 16 16 14 11 10 10 11 9 2 8 4 8 12 11 8 7 8 4 9 5 5 4 5 7 3 4 2 3 3 3 3 2 3 2 6 7 8 7 5
11 12 12 13 16 16 15 14 12 11 11 11 12 2 6 12 6 9 9 7 7 6 8 8 3 0 7 4 6 4 6 4 3 5 2 3 3 3 2 1 4 6 8 7 7
11 11 13 13 14 15 13 12 11 9 10 10 10 3 14 4 5 8 8 3 6 3 4 4 4 7 1 3 1 5 4 2 6 5 2 2 4 1 5 3 2 7 8 7 7
11 13 13 13 13 14 14 12 10 10 11 10 7 5 6 2 3 10 8 6 9 3 1 4 4 5 5 3 3 1 4 3 4 10 5 6 2 0 4 4 2 8 7 8 9
11 12 14 13 13 12 12 13 10 11 10 11 7 8 4 6 7 7 6 4 8 5 3 4 4 5 7 4 6 8 1 2 2 5 5 6 3 9 13 1 8 5 7 8 10
14 13 13 14 14 13 11 6 10 9 7 3 5 7 8 8 6 8 7 5 3 6 6 9 8 6 7 9 2 3 3 4 4 7 8 7 5 8 10 12 8 12 9 9 8
17 17 15 14 15 15 6 4 8 10 12 6 4 5 4 9 5 9 5 7 7 9 5 8 13 6 6 6 3 3 2 4 2 5 7 5 5 5 6 11 13 11 9 9 8
17 18 16 15 11 17 6 8 2 1 5 5 3 2 3 3 6 20 12 8 9 6 3 9 7 6 5 8 7 7 4 5 7 6 5 5 4 4 7 6 8 9 10 9 8
16 17 16 16 7 7 7 4 2 2 4 6 4 5 5 7 6 12 9 4 6 8 9 8 2 6 4 6 5 3 3 3 5 8 1 2 2 3 5 8 9 10 7 11 9
16 17 15 16 8 1 5 6 5 2 8 12 9 6 7 1 6 3 4 2 9 2 4 7 7 6 7 6 5 3 4 4 5 6 1 6 5 4 4 7 8 8 9 9 10
15 16 14 14 1 5 4 6 4 4 9 10 9 5 9 8 4 10 4 8 5 4 4 3 7 7 8 2 2 4 2 2 2 3 4 6 5 3 6 3 5 7 9 9 9
14 15 11 7 5 1 5 4 3 11 2 8 6 8 7 8 7 7 8 8 2 4 7 3 1 3 2 4 3 4 4 2 3 3 5 4 4 3 4 5 4 6 8 9 10
12 10 7 3 2 5 4 4 9 10 4 9 5 6 3 7 8 8 4 9 5 6 6 5 2 3 3 3 3 7 6 6 8 6 6 2 2 8 4 6 7 7 7 7 7
14 6 3 2 3 4 3 8 12 6 5 1 2 4 6 7 5 9 3 6 7 6 4 4 9 3 6 3 1 4 5 7 5 3 6 2 7 5 5 6 8 8 5 7 8
9 2 2 4 3 3 7 9 9 6 2 3 2 7 6 4 2 5 6 2 2 5 5 3 6 2 4 4 3 4 4 2 6 2 5 4 5 2 3 6 7 6 5 6 6
2 3 3 6 3 5 9 3 1 3 4 2 3 3 1 5 5 6 4 3 2 3 3 1 5 1 2 2 3 3 1 5 4 4 7 7 6 6 6 3 2 3 4 3 5
3 5 3 5 4 9 6 5 4 3 1 3 1 1 1 1 1 1 1 1 0 1 2 4 5 5 3 2 6 3 3 3 4 5 6 4 8 5 8 7 4 5 5 6 6
2 4 3 3 8 3 4 6 3 2 1 1 2 3 1 2 2 2 2 4 1 1 2 1 3 4 8 2 1 2 6 5 6 7 4 2 11 1 6 6 5 5 7 6 6
2 2 3 4 4 2 4 2 1 1 1 1 1 1 2 4 2 2 2 1 0 1 3 2 2 5 11 4 5 2 5 3 2 3 7 3 10 1 2 1 3 5 8 8 6
4 4 6 6 2 7 4 1 1 1 1 2 2 2 1 4 1 3 2 2 1 2 1 1 2 8 9 9 3 5 6 5 6 3 4 12 12 5 6 4 6 8 8 8 8
4 2 5 3 5 2 3 5 2 2 1 3 3 4 6 0 3 3 3 3 2 3 2 5 5 2 5 7 5 9 13 5 10 11 6 17 7 7 6 6 7 6 7 7 8
3 4 3 2 1 0 1 5 7 3 6 3 4 4 7 6 7 5 3 3 4 2 3 1 3 3 8 6 4 7 13 10 10 12 9 18 21 4 5 4 5 9 6 8 9
1 1 5 2 1 4 4 4 5 5 3 2 5 4 5 7 2 0 2 3 1 5 5 3 4 3 8 4 7 9 9 6 4 4 8 5 8 2 4 6 5 8 6 8 9
Wind_Direction
23 13 6 1 357 356 357 355 358 359 357 349 345 341 345 347 348 48 43 298 312 315 319 279 320 347 323 39 27 54 59 41 14 33 66 1 19 338 331 99 56 26 72 114 127
25 12 5 358 353 351 353 350 349 350 349 344 338 332 334 343 71 52 349 342 327 319 339 8 351 348 32 22 15 64 77 79 330 30 26 339 50 330 26 23 63 62 86 121 133
26 10 4 356 353 348 348 344 342 342 342 334 326 330 328 338 66 348 345 341 325 312 272 296 293 218 52 45 355 34 79 148 15 25 360 350 359 317 23 51 54 100 152 133 138
17 9 2 355 351 343 343 340 337 336 336 330 329 336 329 8 69 303 333 334 329 318 293 357 358 46 71 53 345 87 33 74 13 6 28 341 305 356 40 147 119 93 146 124 122
13 5 357 346 343 341 342 339 339 337 328 324 326 330 50 51 45 287 330 331 349 10 33 37 46 54 84 77 50 78 126 62 181 25 80 326 322 288 74 184 117 99 113 124 117
10 354 350 344 343 340 338 338 343 334 330 335 331 353 66 69 282 319 338 335 2 20 11 37 67 134 93 64 72 109 105 125 39 357 75 17 293 31 249 347 118 119 115 116 104
4 355 347 343 345 343 335 333 333 330 329 332 344 55 65 52 308 335 358 360 350 18 23 351 345 87 105 84 340 141 82 34 5 334 359 324 33 156 189 172 151 139 133 126 129
2 352 348 341 340 341 330 320 314 310 305 309 334 63 80 253 268 356 349 339 348 321 70 291 352 84 74 102 74 97 73 49 343 7 343 40 80 207 199 133 93 157 141 117 104
359 353 350 341 335 338 329 319 322 329 297 321 37 93 22 332 6 335 10 333 310 325 350 321 43 75 17 61 27 11 137 1 346 45 354 56 293 360 356 18 10 49 116 104 80
348 347 352 345 335 335 318 283 315 4 344 358 39 49 11 316 306 330 319 320 322 324 10 38 44 57 27 39 145 325 347 333 37 356 9 4 360 11 8 56 37 50 43 67 74
356 347 345 351 341 346 9 19 21 359 33 95 291 100 295 298 283 346 341 346 359 42 50 28 57 35 345 345 324 310 359 354 27 34 15 30 15 30 10 50 45 36 48 48 48
1 355 344 343 354 9 53 68 52 255 53 22 43 61 343 351 2 356 360 67 43 43 11 36 51 311 321 6 64 26 22 333 295 3 13 23 33 50 39 47 59 51 36 33 31
358 355 347 340 342 45 66 68 292 8 86 8 43 35 322 10 38 336 20 7 70 50 35 104 281 314 88 27 45 55 91 324 243 333 319 53 321 117 45 60 55 44 37 33 30
358 352 346 345 50 28 50 327 330 334 74 324 349 10 344 75 38 303 8 68 38 78 49 70 341 26 37 63 33 26 6 327 328 26 238 21 267 226 111 65 49 45 43 40 35
357 350 346 34 112 49 302 320 322 56 57 313 327 298 340 74 292 344 4 36 86 8 91 283 6 12 41 328 17 243 321 305 43 82 62 336 79 290 134 80 73 49 44 35 38
354 350 357 24 54 213 300 322 44 44 334 338 329 353 20 10 6 322 20 34 65 70 40 109 263 74 250 277 228 298 27 47 43 91 23 274 98 240 228 164 94 55 45 41 34
354 356 31 6 333 316 328 54 41 86 330 313 325 355 36 348 357 14 57 22 62 57 0 346 343 328 3 340 16 36 46 348 359 7 224 283 56 240 143 103 124 97 54 43 40
334 357 40 93 317 347 53 51 68 235 232 293 296 338 51 358 353 351 50 26 17 34 74 79 334 14 356 65 210 358 124 144 230 257 267 8 242 247 132 110 92 80 70 40 25
340 350 34 323 352 66 66 50 183 205 281 338 349 59 333 353 76 47 30 64 355 21 112 54 286 84 43 358 56 317 40 134 94 51 45 260 309 129 93 43 62 57 53 28 360
30 11 307 312 25 66 72 150 116 323 339 309 97 115 279 310 37 48 5 326 5 16 126 105 343 347 311 11 17 99 318 23 12 351 310 293 280 242 215 233 348 30 6 334 334
35 45 280 350 46 49 102 200 227 224 70 40 101 27 203 273 9 305 283 242 37 224 71 136 111 283 51 191 184 1 4 38 134 151 195 276 259 207 193 192 169 266 290 256 276
64 22 301 55 48 49 115 180 212 183 12 40 127 121 172 11 318 15 279 202 356 191 167 226 131 254 235 195 213 199 202 173 129 270 234 179 268 193 154 179 168 265 285 289 259
56 265 331 74 96 5 325 324 222 143 147 137 82 43 116 162 36 214 237 218 99 96 172 149 319 356 341 2 357 244 234 169 77 64 209 169 268 357 15 68 289 262 287 285 275
73 14 333 41 105 120 137 238 141 342 134 128 140 75 123 20 65 256 266 208 172 133 142 23 198 172 199 216 153 254 229 210 142 144 216 235 284 268 247 259 298 287 270 277 268
31 224 181 314 338 79 118 144 137 227 263 144 357 216 160 314 324 257 238 186 186 178 160 130 206 264 254 232 209 248 250 192 193 230 221 277 241 270 225 235 250 257 284 304 299
112 121 5 165 240 80 58 224 180 245 150 225 167 181 182 180 200 230 200 228 211 195 181 47 271 83 295 313 264 271 264 226 231 257 256 270 275 157 257 284 306 291 290 290 285
285 41 100 301 53 83 232 188 221 150 227 173 191 146 195 230 211 348 21 37 19 167 187 131 121 69 262 332 329 314 238 177 198 211 166 213 233 245 293 294 264 281 286 279 284